User: anonymous   Login
Location: Peebles
(55.6412°N, 3.1714°W)
Time: 20:23:22
(UTC+01:00)
Language:

Explorer 11/Cluster Stage 4 - Orbit

View from above orbital plane
View from above orbital plane
View from above satellite
View from above satellite

Ground track
Ground track

The orbit data is extracted from the following two-line orbital elements,

1 00107U 61013A   22275.29589830  .00002052  00000-0  25274-3 0  9993
2 00107  28.7882 131.7717 0540686 199.3603 158.5667 14.10473480 84396
Epoch (UTC): 02 October 2022 07:06:05
Eccentricity: 0.0540686
inclination: 28.7882°
perigee height: 466 km
apogee height: 1249 km
right ascension of ascending node: 131.7717°
argument of perigee: 199.3603°
revolutions per day: 14.10473480
mean anomaly at epoch: 158.5667°
orbit number at epoch: 8439

The dashed part of the orbit path shows where the satellite is in the earth's shadow,  

DLR